Weather in Orativ

Ukraine / Vinnytsia Region     49°11′17″N   29°31′54″E
temp.,
°C
wind,
m/s
gust,
m/s
humid.,
%
clouds,
%
prec.,
mm/h
press.,
hPa
HPBL,
m
13 may, thu
thu1300:00+6ese22935 0.0 101236
03:00+5sse3394100 0.0 101147
06:00+5sse349599 0.0 101088
09:00+11sse577267 0.0 1010624
12:00+10s6979100 0.1 1010676
15:00+10se6128599 0.3 1009544
18:00+14s71174100 0.0 10081082
21:00+10sse41194100 0.5 1009516
14 may, fri
fri1400:00+10sse51389100 0.4 1008530
03:00+9sse412875 0.5 1008288
06:00+8sse4108690 0.0 1007247
09:00+13sse466858 0.0 1007378
12:00+12sse3677100 0.1 1007413
15:00+13sw4472100 0.1 1007481
18:00+10wsw3592100 1.4 1007214
21:00+10ssw3795100 1.4 1008180
15 may, sat
sat1500:00+11ssw4997100 2.3 1008271
03:00+10sw369558 2.5 1009121
06:00+10sw359399 0.0 1010135
09:00+13sw578039 0.0 1010686
12:00+15sw577484 0.1 1011969
15:00+18wsw576477 0.3 10111437
18:00+17wsw446526 0.2 10111086
21:00+12w118312 0.8 101210
16 may, sun
sun1600:00+11e11865 0.0 101210
03:00+10se22885 0.0 101311
06:00+10ese22905 0.0 101331
09:00+16ese46766 0.0 1012370
12:00+20se5662100 0.0 10111051
15:00+21ese4756100 0.6 10101642
18:00+21se3563100 0.1 1008379
21:00+16ene3477100 0.1 100843
17 may, mon
mon1700:00+15ese2383100 0.4 100846
03:00+13ene2293100 2.3 100622
06:00+13e3598100 1.9 1006165
09:00+14nw1199100 5.7 100567
12:00+14wnw2398100 6.0 1004194
15:00+15nnw238895 7.4 1005316
18:00+16n2388100 1.4 100468
21:00+14w119483 1.9 100512